This is the latest recevied weather packets stored in our database for station/object N4CRH-13. If no packets are shown the sender has not sent any weather packets the latest 10 day(s).
| Time | Temp. | Humidity | Pressure | Rain* | Wind** | Luminosity | Snow |
|---|---|---|---|---|---|---|---|
| 1777480362 | 8.89° C | 73% | 1296.5 hPa | 0 mm | - | 305 W/m² | - |
| 1777480058 | 10° C | 66% | 1296.5 hPa | 0 mm | - | 560 W/m² | - |
| 1777479754 | 10° C | 60% | 1296.5 hPa | 0 mm | - | 588 W/m² | - |
| 1777479453 | 10° C | 62% | 1296.5 hPa | 0 mm | - | 367 W/m² | - |
| 1777479148 | 9.44° C | 72% | 1296.3 hPa | 0 mm | - | 606 W/m² | - |
| 1777478846 | 7.78° C | 76% | 1296.5 hPa | 0 mm | - | 370 W/m² | - |
| 1777478239 | 7.78° C | 75% | 1296.3 hPa | 0 mm | - | 337 W/m² | - |
| 1777477631 | 6.67° C | 78% | 1296.5 hPa | 0 mm | - | 211 W/m² | - |
| 1777476722 | 7.22° C | 80% | 1296.7 hPa | 0 mm | - | 232 W/m² | - |
| 1777470352 | 3.89° C | 89% | 1297.5 hPa | 0 mm | - | 82 W/m² | - |
| 1777467915 | 2.22° C | 92% | 1297.5 hPa | 0 mm | - | 30 W/m² | - |
| 1777467306 | 2.22° C | 92% | 1297.8 hPa | 0 mm | - | 22 W/m² | - |
| 1777466700 | 1.67° C | 93% | 1297.6 hPa | 0 mm | - | 20 W/m² | - |
| 1777466093 | 1.67° C | 93% | 1297.4 hPa | 0 mm | - | 19 W/m² | - |
| 1777465789 | 1.67° C | 93% | 1297.4 hPa | 0 mm | - | 15 W/m² | - |
| 1777465184 | 1.67° C | 93% | 1297.6 hPa | 0 mm | - | 8 W/m² | - |
| 1777464575 | 1.11° C | 92% | 1297.8 hPa | 0 mm | - | 4 W/m² | - |
| 1777463967 | 2.22° C | 91% | 1297.8 hPa | 0 mm | - | 1 W/m² | - |
| 1777463662 | 2.22° C | 91% | 1297.6 hPa | 0 mm | - | 1 W/m² | - |
| 1777463357 | 2.78° C | 90% | 1297.5 hPa | 0 mm | - | 0 W/m² | - |
| 1777462749 | 2.22° C | 91% | 1297.5 hPa | 0 mm | - | 0 W/m² | - |
| 1777462444 | 2.78° C | 90% | 1297.3 hPa | 0 mm | - | 0 W/m² | - |
| 1777462142 | 2.78° C | 90% | 1297.4 hPa | 0 mm | - | 0 W/m² | - |
| 1777461837 | 2.78° C | 90% | 1297.4 hPa | 0 mm | - | 0 W/m² | - |
| 1777461534 | 2.78° C | 90% | 1297.1 hPa | 0 mm | - | 0 W/m² | - |
* Rain latest hour (hover to see other rain measurements)
** Current wind speed in m/s (hover to see current wind gust speed)